Tillbaka till svenska Fidonet
English   Information   Debug  
FILM   0/18
FNEWS_PUBLISH   4758
FN_SYSOP   42039
FN_SYSOP_OLD1   71952
FTP_FIDO   0/2
FTSC_PUBLIC   0/13899
FUNNY   0/4886
GENEALOGY.EUR   0/71
GET_INFO   105
GOLDED   0/408
HAM   3557/16403
HOLYSMOKE   0/6791
HOT_SITES   0/1
HTMLEDIT   0/71
HUB203   466
HUB_100   264
HUB_400   39
HUMOR   0/29
IC   0/2851
INTERNET   0/424
INTERUSER   0/3
IP_CONNECT   719
JAMNNTPD   0/233
JAMTLAND   0/47
KATTY_KORNER   0/41
LAN   0/16
LINUX-USER   0/19
LINUXHELP   0/1155
LINUX   0/22268
LINUX_BBS   0/957
mail   18.68
mail_fore_ok   249
MENSA   0/341
MODERATOR   0/102
MONTE   0/992
MOSCOW_OKLAHOMA   0/1245
MUFFIN   0/783
MUSIC   0/321
N203_STAT   938
N203_SYSCHAT   313
NET203   321
NET204   69
NET_DEV   0/10
NORD.ADMIN   0/101
NORD.CHAT   0/2572
NORD.FIDONET   189
NORD.HARDWARE   0/28
NORD.KULTUR   0/114
NORD.PROG   0/32
NORD.SOFTWARE   0/88
NORD.TEKNIK   0/58
NORD   0/453
OCCULT_CHAT   0/93
OS2BBS   0/787
OS2DOSBBS   0/580
OS2HW   0/42
OS2INET   0/37
OS2LAN   0/134
OS2PROG   0/36
OS2REXX   0/113
OS2USER-L   207
OS2   0/4806
OSDEBATE   0/18996
PASCAL   0/490
PERL   0/457
PHP   0/45
POINTS   0/405
POLITICS   0/29554
POL_INC   0/14731
PSION   103
R20_ADMIN   1132
R20_AMATORRADIO   0/2
R20_BEST_OF_FIDONET   14
R20_CHAT   0/893
R20_DEPP   0/3
R20_DEV   399
R20_ECHO2   1671
R20_ECHOPRES   0/35
R20_ESTAT   0/719
R20_FIDONETPROG...
...RAM.MYPOINT
  0/2
R20_FIDONETPROGRAM   0/22
R20_FIDONET   0/248
R20_FILEFIND   0/24
R20_FILEFOUND   0/22
R20_HIFI   0/3
R20_INFO2   3561
R20_INTERNET   0/12940
R20_INTRESSE   0/60
R20_INTR_KOM   0/99
R20_KANDIDAT.CHAT   42
R20_KANDIDAT   28
R20_KOM_DEV   112
R20_KONTROLL   0/13360
R20_KORSET   0/18
R20_LOKALTRAFIK   0/24
R20_MODERATOR   0/1852
R20_NC   76
R20_NET200   245
R20_NETWORK.OTH...
...ERNETS
  0/13
R20_OPERATIVSYS...
...TEM.LINUX
  0/44
R20_PROGRAMVAROR   0/1
R20_REC2NEC   534
R20_SFOSM   0/341
R20_SF   0/108
R20_SPRAK.ENGLISH   0/1
R20_SQUISH   107
R20_TEST   2
R20_WORST_OF_FIDONET   20
RAR   0/9
RA_MULTI   106
RA_UTIL   0/162
REGCON.EUR   0/2066
REGCON   0/13
SCIENCE   0/1206
SF   0/239
SHAREWARE_SUPPORT   0/5146
SHAREWRE   0/14
SIMPSONS   0/169
STATS_OLD1   0/2539.065
STATS_OLD2   0/2530
STATS_OLD3   0/2395.095
STATS_OLD4   0/1692.25
SURVIVOR   0/495
SYSOPS_CORNER   0/3
SYSOP   0/84
TAGLINES   0/112
TEAMOS2   0/4530
TECH   0/2617
TEST.444   0/105
TRAPDOOR   0/19
TREK   0/755
TUB   0/290
UFO   0/40
UNIX   0/1316
USA_EURLINK   0/102
USR_MODEMS   0/1
VATICAN   0/2740
VIETNAM_VETS   0/14
VIRUS   0/378
VIRUS_INFO   0/201
VISUAL_BASIC   0/473
WHITEHOUSE   0/5187
WIN2000   0/101
WIN32   0/30
WIN95   0/4291
WIN95_OLD1   0/70272
WINDOWS   0/1517
WWB_SYSOP   0/419
WWB_TECH   0/810
ZCC-PUBLIC   0/1
ZEC   4

 
4DOS   0/134
ABORTION   0/7
ALASKA_CHAT   0/506
ALLFIX_FILE   0/1313
ALLFIX_FILE_OLD1   0/7997
ALT_DOS   0/152
AMATEUR_RADIO   0/1039
AMIGASALE   0/14
AMIGA   0/331
AMIGA_INT   0/1
AMIGA_PROG   0/20
AMIGA_SYSOP   0/26
ANIME   0/15
ARGUS   0/924
ASCII_ART   0/340
ASIAN_LINK   0/651
ASTRONOMY   0/417
AUDIO   0/92
AUTOMOBILE_RACING   0/105
BABYLON5   0/17862
BAG   135
BATPOWER   0/361
BBBS.ENGLISH   0/382
BBSLAW   0/109
BBS_ADS   0/5290
BBS_INTERNET   0/507
BIBLE   0/3563
BINKD   0/1119
BINKLEY   0/215
BLUEWAVE   0/2173
CABLE_MODEMS   0/25
CBM   0/46
CDRECORD   0/66
CDROM   0/20
CLASSIC_COMPUTER   0/378
COMICS   0/15
CONSPRCY   0/899
COOKING   39917
COOKING_OLD1   0/24719
COOKING_OLD2   0/40862
COOKING_OLD3   0/37489
COOKING_OLD4   0/35496
COOKING_OLD5   9370
C_ECHO   0/189
C_PLUSPLUS   0/31
DIRTY_DOZEN   0/201
DOORGAMES   0/2155
DOS_INTERNET   0/196
duplikat   6102
ECHOLIST   0/18295
EC_SUPPORT   0/318
ELECTRONICS   0/359
ELEKTRONIK.GER   1534
ENET.LINGUISTIC   0/13
ENET.POLITICS   0/4
ENET.SOFT   0/11701
ENET.SYSOP   34210
ENET.TALKS   0/32
ENGLISH_TUTOR   0/2000
EVOLUTION   0/1335
FDECHO   0/217
FDN_ANNOUNCE   0/7068
FIDONEWS   24756
FIDONEWS_OLD1   0/49742
FIDONEWS_OLD2   0/35949
FIDONEWS_OLD3   0/30874
FIDONEWS_OLD4   0/37224
FIDO_SYSOP   12913
FIDO_UTIL   0/180
FILEFIND   0/209
FILEGATE   0/212
Möte HAM, 16403 texter
 lista första sista föregående nästa
Text 5114, 921 rader
Skriven 2012-03-01 22:31:27 av Amsat List (1:323/120.0)
Ärende: [keps] orb12061.amsa
============================
[keps] orb12061.amsa

Sender: keps-bounces@amsat.org
Return-Path: <keps-bounces@amsat.org>
X-Rcpt: craig.healy@chowda.com
X-UIDL: 1330657852.276

SB KEPS @ AMSAT  $ORB12061.O
Orbital Elements  12061.OSCAR

HR AMSAT ORBITAL ELEMENTS FOR OSCAR SATELLITES
FROM WA5QGD FORT WORTH,TX March 1, 2012
Send SUBSCRIBE KEPS/UNSUBSCRIBE KEPS to majordomo@amsat.org only
BID: ORB12061.O
TO ALL RADIO AMATEURS BT

Satellite: AO-07
Catalog number: 07530
Epoch time:      12060.60976882
Element set:    0320
Inclination:      101.4008 deg
RA of node:       062.0262 deg
Eccentricity:    0.0012068
Arg of perigee:   134.9699 deg
Mean anomaly:     225.2353 deg
Mean motion:   12.53587865 rev/day
Decay rate:       -2.7e-07 rev/day^2
Epoch rev:           70644
Checksum:              286

Satellite: FO-29
Catalog number: 24278
Epoch time:      12060.92162850
Element set:    0786
Inclination:      098.5745 deg
RA of node:       175.7823 deg
Eccentricity:    0.0350131
Arg of perigee:   309.7556 deg
Mean anomaly:     047.3219 deg
Mean motion:   13.52977759 rev/day
Decay rate:        3.1e-07 rev/day^2
Epoch rev:           76731
Checksum:              336

Satellite: SO-33
Catalog number: 25509
Epoch time:      12060.75459216
Element set:    0176
Inclination:      031.4341 deg
RA of node:       227.2765 deg
Eccentricity:    0.0352975
Arg of perigee:   334.4539 deg
Mean anomaly:     023.9100 deg
Mean motion:   14.28671921 rev/day
Decay rate:       2.10e-06 rev/day^2
Epoch rev:           69713
Checksum:              293

Satellite: RS-22
Catalog number: 27939
Epoch time:      12061.41734159
Element set:     131
Inclination:      097.8213 deg
RA of node:       267.7101 deg
Eccentricity:    0.0012476
Arg of perigee:   245.4717 deg
Mean anomaly:     114.5182 deg
Mean motion:   14.63913083 rev/day
Decay rate:       5.12e-06 rev/day^2
Epoch rev:           45011
Checksum:              276

Satellite: VO-52
Catalog number: 28650
Epoch time:      12060.61535433
Element set:      37
Inclination:      097.6105 deg
RA of node:       096.8339 deg
Eccentricity:    0.0027475
Arg of perigee:   039.4636 deg
Mean anomaly:     320.8570 deg
Mean motion:   14.82701029 rev/day
Decay rate:      1.207e-05 rev/day^2
Epoch rev:           36888
Checksum:              310

Satellite: HO-68
Catalog number: 36122
Epoch time:      12061.28486997
Element set:     245
Inclination:      100.3763 deg
RA of node:       122.7528 deg
Eccentricity:    0.0007579
Arg of perigee:   357.9692 deg
Mean anomaly:     002.1411 deg
Mean motion:   13.16293437 rev/day
Decay rate:       -4.4e-07 rev/day^2
Epoch rev:           10619
Checksum:              303

/EX
SB KEPS @ AMSAT  $ORB12061.D
Orbital Elements  12061.MICROS

HR AMSAT ORBITAL ELEMENTS FOR THE MICROSATS
FROM WA5QGD FORT WORTH,TX March 1, 2012
Send SUBSCRIBE KEPS/UNSUBSCRIBE KEPS to majordomo@amsat.org only
BID: ORB12061.D
TO ALL RADIO AMATEURS BT

Satellite: UO-11
Catalog number: 14781
Epoch time:      12060.97579699
Element set:    0802
Inclination:      097.9686 deg
RA of node:       121.3820 deg
Eccentricity:    0.0009709
Arg of perigee:   029.7279 deg
Mean anomaly:     330.4483 deg
Mean motion:   14.80322965 rev/day
Decay rate:       2.88e-06 rev/day^2
Epoch rev:           50392
Checksum:              338

Satellite: AO-16
Catalog number: 20439
Epoch time:      12060.85795645
Element set:    0417
Inclination:      098.4188 deg
RA of node:       007.3301 deg
Eccentricity:    0.0011603
Arg of perigee:   117.1176 deg
Mean anomaly:     243.1193 deg
Mean motion:   14.32020640 rev/day
Decay rate:        8.7e-07 rev/day^2
Epoch rev:           15449
Checksum:              276

Satellite: LO-19
Catalog number: 20442
Epoch time:      12060.96733881
Element set:    0334
Inclination:      098.3841 deg
RA of node:       010.8262 deg
Eccentricity:    0.0012583
Arg of perigee:   109.2130 deg
Mean anomaly:     251.0417 deg
Mean motion:   14.32241709 rev/day
Decay rate:       1.87e-06 rev/day^2
Epoch rev:           15469
Checksum:              277

Satellite: AO-27
Catalog number: 22825
Epoch time:      12060.89062621
Element set:      44
Inclination:      098.5632 deg
RA of node:       005.4526 deg
Eccentricity:    0.0007748
Arg of perigee:   234.7967 deg
Mean anomaly:     125.2510 deg
Mean motion:   14.29432744 rev/day
Decay rate:        3.2e-07 rev/day^2
Epoch rev:           96100
Checksum:              286

Satellite: IO-26
Catalog number: 22826
Epoch time:      12060.84215552
Element set:    0801
Inclination:      098.5582 deg
RA of node:       005.8042 deg
Eccentricity:    0.0008126
Arg of perigee:   230.1907 deg
Mean anomaly:     129.8559 deg
Mean motion:   14.29703803 rev/day
Decay rate:        8.4e-07 rev/day^2
Epoch rev:           96112
Checksum:              291

Satellite: GO-32
Catalog number: 25397
Epoch time:      12060.50151316
Element set:    0716
Inclination:      098.3531 deg
RA of node:       044.6213 deg
Eccentricity:    0.0000587
Arg of perigee:   201.6337 deg
Mean anomaly:     158.4834 deg
Mean motion:   14.23258781 rev/day
Decay rate:        1.0e-08 rev/day^2
Epoch rev:           70856
Checksum:              280

Satellite: NO-44
Catalog number: 26931
Epoch time:      12060.40649451
Element set:    0982
Inclination:      067.0526 deg
RA of node:       040.6939 deg
Eccentricity:    0.0006500
Arg of perigee:   277.5540 deg
Mean anomaly:     082.4823 deg
Mean motion:   14.29763051 rev/day
Decay rate:      -1.39e-06 rev/day^2
Epoch rev:           54369
Checksum:              304

